Regional Weather Roundup
Issued by NWS

Home | Current Version | Previous Version | Text Only | Print | Product List | Glossary Off
Versions: 1 2 3 4 5 6 7 8 9 10 11 12 13 14 15 16 17 18 19 20 21 22 23 24 25 26 27 28 29 30 31 32 33 34 35 36 37 38 39 40 41 42 43 44 45 46 47 48 49 50

000
ASUS45 KBOU 262207
RWRCO

WEATHER ROUNDUP FOR COLORADO
NATIONAL WEATHER SERVICE DENVER/BOULDER CO
400 PM MDT SUN APR 26 2015

NOTE: "FAIR" INDICATES FEW OR NO CLOUDS BELOW 12000 FEET WITH NO
SIGNIFICANT WEATHER AND/OR OBSTRUCTIONS TO VISIBILITY.

COZ001>005-013-030-031-262300-
...NORTHWEST COLORADO...

CITY           SKY/WX    TMP DP  RH WIND       PRES   REMARKS
CRAIG          LGT RAIN  46  40  79 W7        29.84S
HAYDEN         CLOUDY    48  37  66 W13       29.83S
MEEKER         RAIN      42  38  85 NE13      29.85R FOG
MOUNT WERNER   NOT AVBL
STEAMBOAT SPGS CLOUDY    52  33  48 SE6       29.81R
WALDEN         PTSUNNY   46  32  57 W3        29.86S
$$

COZ006>008-011-262300-
...WEST CENTRAL VALLEYS...

CITY           SKY/WX    TMP DP  RH WIND       PRES   REMARKS
GRAND JUNCTION CLOUDY    55  43  63 CALM      29.78R
MONTROSE       CLOUDY    50  39  66 VRB6      29.81S
EAGLE          CLOUDY    48  39  71 SW3       29.84S
RIFLE          LGT RAIN  49  41  74 N8        29.81R
DELTA          CLOUDY    57  40  54 MISG      29.77R
NUCLA          LGT RAIN  48  41  76 NE9       29.83R
$$

COZ017>023-064>068-262300-
...SOUTHWEST COLORADO...

CITY           SKY/WX    TMP DP  RH WIND       PRES   REMARKS
DURANGO        LGT RAIN  39  39 100 SE9       29.77S FOG
CORTEZ         CLOUDY    51  40  65 W8        29.75S
PAGOSA SPRINGS LGT RAIN  40  39  95 SE5       29.80R
TELLURIDE      CLOUDY    36  36 100 W15G21    29.85S FOG
WOLF CREEK PAS NOT AVBL
$$

COZ009-010-012-014-032>034-037-058>063-262300-
...CENTRAL COLORADO...

CITY           SKY/WX    TMP DP  RH WIND       PRES   REMARKS
ASPEN          CLOUDY    43  36  76 N6        29.81R
BUENA VISTA    LGT RAIN  40  35  82 SE9       29.86S
COPPER MTN     CLOUDY    34  28  80 NE8       29.95R WCI  27
BERTHOUD PASS  SNOW      23  14  68 E17G30    29.99S VSB 1/4 WCI   9
COTTONWOOD PAS SNOW      34  32  93 SE7       29.89S VSB 1/4 WCI  28
GUNNISON       CLOUDY    39  34  81 N3        29.83S
KREMMLING      LGT RAIN  43  36  75 SW7       29.87R
LEADVILLE      LGT SNOW  32  30  92 W3        29.88S VSB 3/4
MONARCH PASS   CLOUDY    27  25  93 MISG      29.98F
SALIDA         CLOUDY    40  38  93 E5        29.93R
SUNLIGHT       SNOW      32  32 100 N6        29.95R VSB 1/4 WCI  26
WILKERSON PASS SNOW     N/A N/A N/A MISG      29.95S VSB 1/2
$$

COZ069>075-262300-
...SAN LUIS VALLEY/SANGRE DE CRISTO MOUNTAINS...

CITY           SKY/WX    TMP DP  RH WIND       PRES   REMARKS
ALAMOSA        CLOUDY    41  37  86 SW9       29.77F
LA VETA PASS   SNOW      32  30  93 NE8       29.86R VSB 1/2 WCI  25
SAGUACHE       CLOUDY    43  37  81 CALM      29.82S
$$

COZ035-036-038>040-262300-
...NORTHERN COLORADO FRONT RANGE...

CITY           SKY/WX    TMP DP  RH WIND       PRES   REMARKS
DENVER INTL AP LGT RAIN  43  43 100 E14       29.90R FOG
DMNS CITY PARK   N/A     43  42  97 NE13      29.90S
AURORA         NOT AVBL
FRONT RANGE AP CLOUDY    45  45 100 E16       29.90S FOG
ERIE MUNI ARPT RAIN      45  43  94 E9        29.92S
BOULDER MUN AP RAIN      43  43 100 W7        29.91F
CENTENNIAL     LGT RAIN  44  43  96 NE10      29.88S FOG
BROOMFIELD     RAIN      43  41  93 N5        29.92S
FORT COLLINS   CLOUDY    45  41  87 E10       29.95R
LONGMONT       RAIN      46  44  90 NE3       29.94S
$$

COZ041-046-047-076>085-087-088-262300-
...PIKES PEAK/PALMER DIVIDE AND SOUTHERN FOOTHILLS...

CITY           SKY/WX    TMP DP  RH WIND       PRES   REMARKS
COLO. SPRINGS  CLOUDY    45  41  86 E16       29.87R
A. F. ACADEMY  NOT AVBL
ELLICOTT       LGT RAIN N/A N/A N/A E22       29.85R VSB 1/4
FALCON         CLOUDY    42  42  97 E14G20    29.88R
FORT CARSON    NOT AVBL
LIMON          CLOUDY    42  41  96 E17       29.89R
MONUMENT HILL  CLOUDY    37  37 100 E12       29.87S FOG
TRINIDAD       CLOUDY    44  40  85 E8        29.78R
$$

COZ042>045-048>051-090-091-262300-
...NORTHEAST COLORADO...

CITY           SKY/WX    TMP DP  RH WIND       PRES   REMARKS
GREELEY ARPT   CLOUDY    43  39  87 E9        29.94S
AKRON          CLOUDY    41  41 100 E15       29.93S FOG
BURLINGTON     FOG       43  42  97 E17       29.90F VSB 1
WRAY           CLOUDY   N/A N/A N/A NE13      29.96S FOG
STERLING       LGT RAIN  43  43 100 E8        29.95S
HOLYOKE        CLOUDY    43  41  93 E14       29.97S FOG
FORT MORGAN    LGT RAIN  42  41  95 E16       29.95R
$$

COZ086-089-092>099-262300-
...SOUTHEAST COLORADO...

CITY           SKY/WX    TMP DP  RH WIND       PRES   REMARKS
PUEBLO         CLOUDY    47  43  86 E21       29.83R
LA JUNTA       CLOUDY    50  42  74 E22       29.83R
LAMAR          CLOUDY    48  45  89 E16G26    29.82S
SPRINGFIELD      N/A     46  45  96 E14       29.83R
$$



USA.gov is the U.S. government's official web portal to all federal, state and local government web resources and services.